User: anonymous   Login
Location: Unspecified
(0.0000°N, 0.0000°E)
Time: 17:26:24
(UTC+00:00)
Language:

ALL STAR/THEIA - Orbit

View from above orbital plane
View from above orbital plane
View from above satellite
View from above satellite

Ground track
Ground track

The orbit data is extracted from the following two-line orbital elements,

1 39683U 14022D   14145.84363922  .08313047  12544-4  33243-3 0  9994
2 39683 051.6422 196.6006 0001982 013.0557 348.1016 16.44047317  5937
Epoch (UTC): 25 May 2014 20:14:50
Eccentricity: 0.0001982
inclination: 51.6422°
perigee height: 154 km
apogee height: 156 km
right ascension of ascending node: 196.6006°
argument of perigee: 13.0557°
revolutions per day: 16.44047317
mean anomaly at epoch: 348.1016°
orbit number at epoch: 593

The dashed part of the orbit path shows where the satellite is in the earth's shadow,  

DLR